Regional Weather Roundup
Issued by NWS

Home | Current Version | Previous Version | Graphics & Text | Print | Product List | Glossary On
Versions: 1 2 3 4 5 6 7 8 9 10 11 12 13 14 15 16 17 18 19 20 21 22 23 24 25 26 27 28 29 30 31 32 33 34 35 36 37 38 39 40 41 42 43 44 45 46 47 48 49 50
458
ASUS43 KMKX 272011
RWRWI

WISCONSIN REGIONAL WEATHER ROUNDUP
NATIONAL WEATHER SERVICE MILWAUKEE/SULLIVAN WI
300 PM CDT WED JUL 27 2016

NOTE: "FAIR" INDICATES FEW OR NO CLOUDS BELOW 12,000 FEET WITH NO
SIGNIFICANT WEATHER AND/OR OBSTRUCTIONS TO VISIBILITY.

WIZ001-002-006>008-014>016-023>028-272100-
NORTHWEST WISCONSIN

CITY           SKY/WX    TMP DP  RH WIND       PRES   REMARKS
SUPERIOR ARPT  DRIZZLE   61  60  95 NE10G18   30.03S
ASHLAND        LGT RAIN  64  61  90 N13G32    30.02S
HAYWARD        LGT RAIN  70  68  93 N9        30.00S
SIREN          LGT RAIN  68  64  88 NE12      29.96F
CUMBERLAND     TSTM      72  68  88 NE3       29.97S
RICE LAKE      RAIN      74  68  83 CALM      29.97F
CHETEK         LGT RAIN  76  69  79 MISG      29.96S
LADYSMITH      CLOUDY    74  67  78 E5        29.99F
EAU CLAIRE     CLOUDY    83  68  60 S13       29.92F HX  86
MENOMONIE      CLOUDY    83  69  61 S10       29.93F HX  87
NEW RICHMOND   RAIN      75  68  79 S3        29.96R
OSCEOLA        RAIN      74  70  85 CALM      29.97R
$$

WIZ003>005-009-010-017-018-272100-
NORTH CENTRAL WISCONSIN

CITY           SKY/WX    TMP DP  RH WIND       PRES   REMARKS
MANITOWISH WTR RAIN      71  68  90 CALM      30.03S
ARBOR VITAE    LGT RAIN  72  67  84 CALM      30.03S
WOODRUFF       LGT RAIN  72  67  84 CALM      30.03S
RHINELANDER    CLOUDY    72  65  78 CALM      30.03S
EAGLE RIVER    DRIZZLE   70  64  79 NW5       30.02F
LAND O LAKES   LGT RAIN  70  67  90 CALM      30.04S
PHILLIPS       RAIN      69  66  92 NE3       30.02R
TOMAHAWK       RAIN      71  66  85 CALM      30.02F
MEDFORD        CLOUDY    74  69  86 CALM      29.99F
MERRILL        CLOUDY    73  69  85 CALM      30.01S
$$

WIZ029-030-035-036-043>047-272100-
CENTRAL WISCONSIN

CITY           SKY/WX    TMP DP  RH WIND       PRES   REMARKS
WAUSAU         MOSUNNY   77  68  73 CALM      29.98F
MOSINEE        NOT AVBL
MARSHFIELD     LGT RAIN  82  69  64 S8        29.98F HX  85
STEVENS POINT  CLOUDY    79  67  66 S5        29.99F HX  81
WAUPACA        PTSUNNY   79  67  64 S3        29.99F HX  81
WAUTOMA        LGT RAIN  73  66  78 CALM      30.00F
WISC RAPIDS    CLOUDY    81  66  60 S8        29.99F HX  83
CAMP DOUGLAS   PTSUNNY   79  72  78 E8        29.97F HX  82
$$

WIZ011>013-019>022-031-037>040-048>050-272100-
NORTHEAST WISCONSIN

CITY           SKY/WX    TMP DP  RH WIND       PRES   REMARKS
ANTIGO         CLOUDY    72  67  83 CALM      30.02F
SHAWANO        CLOUDY    79  65  62 CALM      29.98F HX  81
OCONTO         CLOUDY    76  69  78 NW3       29.96S
STURGEON BAY   CLOUDY    77  64  64 NW6       29.97F
GREEN BAY      MOSUNNY   77  70  79 CALM      29.97F
MANITOWOC      LGT RAIN  76  65  68 S6        29.98F
APPLETON       CLOUDY    75  61  60 VRB6      29.98S
CLINTONVILLE   CLOUDY    77  63  61 S5        29.98S
OSHKOSH        PTSUNNY   75  69  81 SE6       29.99S
$$

WIZ032>034-041-042-053>061-272100-
SOUTHWEST WISCONSIN

CITY           SKY/WX    TMP DP  RH WIND       PRES   REMARKS
LA CROSSE      CLOUDY    84  68  58 S9        29.95F HX  87
SPARTA         PTSUNNY   82  70  66 SW5       29.97F HX  85
VIROQUA        CLOUDY    81  67  63 SW5       30.00F HX  83
BOSCOBEL       CLOUDY    85  67  54 S8        29.97F HX  87
PRAIRIE DU CHI CLOUDY    83  63  50 CALM      29.96F HX  84
PLATTEVILLE    MOSUNNY   83  66  55 SW7       30.00S HX  85
$$

WIZ056-057-062-063-064-067-068-272100-
SOUTH CENTRAL WISCONSIN

CITY           SKY/WX    TMP DP  RH WIND       PRES   REMARKS
REEDSBURG      PTSUNNY  N/A N/A N/A S7        29.97F
BARABOO/DELLS  LGT RAIN  75  65  71 NE12      29.99R
LONE ROCK      PTSUNNY   85  69  58 VRB3      29.97F HX  89
MINERAL POINT  MOSUNNY   82  66  57 SW5       30.00F HX  85
MADISON        PTSUNNY   86  65  49 S6        29.97F HX  88
MIDDLETON      MOSUNNY   87  65  46 W6        29.99S HX  89
WATERTOWN      MOSUNNY   86  69  57 SW8       29.97S HX  89
MONROE         MOSUNNY   82  63  51 SW5       29.99F HX  83
JANESVILLE     MOSUNNY   88  64  45 SW7       29.98R HX  89
$$

WIZ051-052-058>065-066-070>072-272100-
SOUTHEAST WISCONSIN

CITY           SKY/WX    TMP DP  RH WIND       PRES   REMARKS
MILWAUKEE      CLOUDY    87  68  52 SE14      29.96F HX  90
WAUKESHA       MOSUNNY   84  64  51 SW7       29.98F HX  86
MILWAUKEE/TIMM MOSUNNY   88  61  40 NE9       29.98S HX  88
RACINE         MOSUNNY   85  66  53 SE8       29.98F HX  87
BURLINGTON     PTSUNNY   87  63  45 W5        29.98R HX  87
KENOSHA        PTSUNNY   86  64  47 W7        29.96F HX  87
FOND DU LAC    LGT RAIN  75  69  81 E7        30.00R
SHEBOYGAN      LGT RAIN  70  67  90 SW6       30.00F
WEST BEND      CLOUDY    72  63  73 NE9       30.00S
JUNEAU         CLOUDY    69  67  94 N15       30.03R
$$

LSZ147-162-272100-
LAKE SUPERIOR

STATION/POSITION TIME  TEMP    WIND        PRES    WAVE
                       AIR SEA DIR/SP/G            HT/PER
                 (UTC) (F)     (DEG/KT/KT) (MB)    (FT/S)
W MID LAKE BUOY  1950   61 60   70/ 12/ 14 1016.6R   2/ 4
DEVILS ISLAND    2000   60      60/ 17/ 19 1017.7R
PORT WING        1900   65      30/ 24     1016.3F
SAXON HARBOR     1940   68      30/ 10/ 11 1015.9R
$$

LMZ867-665-643>646-272100-
LAKE MICHIGAN

STATION/POSITION TIME  TEMP    WIND        PRES    WAVE
                       AIR SEA DIR/SP/G            HT/PER
                 (UTC) (F)     (DEG/KT/KT) (MB)    (FT/S)
CHAMBERS ISLAND  1900   76     270/  2/  6 1014.9F
S GREEN BAY BUOY 1930   72 75  320/  2/  2   N/A
N MID LAKE BUOY  1950   71 71  280/  6/  8 1013.3F   1
NORTHPORT PIER   1900   74     310/  9/ 12 1014.9F
SISTER BAY       1921   76     360/  6/  6   N/A
ALGOMA LAKESHORE 1913          330/  6/  8   N/A
KEWAUNEE LAKESHO 1900   81      80/  5/  7 1014.5F
SHEBOYGAN LAKESH 2000   71     260/  1/  1 1015.7F
PORT WASHINGTON  1900   72      40/  5/ 11 1015.9
ATWATER BUOY     2000   70 62   50/ 14/ 16 1016.8R
MILWAUKEE LAKESH 1910   71     140/ 16/ 17   N/A
S MID LAKE BUOY  1950   77 77  160/  6/  6 1014.2F   0
KENOSHA   LAKESH 2000   78      CALM  /  3 1014.2F
$$

TC  - TEMPERATURE IN CELSIUS
VSB - VISIBILITY IN STATUTE MILES
WCI - WIND CHILL INDEX
HX  - HEAT INDEX





USA.gov is the U.S. government's official web portal to all federal, state and local government web resources and services.